This is the latest recevied weather packets stored in our database for station/object K6MBY. If no packets are shown the sender has not sent any weather packets the latest 10 day(s).
| Time | Temp. | Humidity | Pressure | Rain* | Wind** | Luminosity | Snow |
|---|---|---|---|---|---|---|---|
| 1777908882 | 19.44° C | 53% | 1014 hPa | 0 mm | - | 364 W/m² | - |
| 1777908580 | 19.44° C | 52% | 1014.1 hPa | 0 mm | - | 354 W/m² | - |
| 1777908276 | 20° C | 52% | 1013.9 hPa | 0 mm | - | 338 W/m² | - |
| 1777907972 | 19.44° C | 52% | 1013.9 hPa | 0 mm | - | 301 W/m² | - |
| 1777907668 | 20° C | 48% | 1013.9 hPa | 0 mm | - | 304 W/m² | - |
| 1777907364 | 20.56° C | 47% | 1013.9 hPa | 0 mm | - | 287 W/m² | - |
| 1777907060 | 20.56° C | 46% | 1013.9 hPa | 0 mm | - | 76 W/m² | - |
| 1777906758 | 19.44° C | 45% | 1013.9 hPa | 0 mm | - | 249 W/m² | - |
| 1777906454 | 19.44° C | 46% | 1013.9 hPa | 0 mm | - | 235 W/m² | - |
| 1777906151 | 19.44° C | 46% | 1013.7 hPa | 0 mm | - | 203 W/m² | - |
| 1777905848 | 18.89° C | 48% | 1013.8 hPa | 0 mm | - | 203 W/m² | - |
| 1777905545 | 18.33° C | 48% | 1013.7 hPa | 0 mm | - | 184 W/m² | - |
| 1777905242 | 17.78° C | 47% | 1013.7 hPa | 0 mm | - | 171 W/m² | - |
| 1777904939 | 17.78° C | 49% | 1013.5 hPa | 0 mm | - | 152 W/m² | - |
| 1777904636 | 17.78° C | 47% | 1013.6 hPa | 0 mm | - | 146 W/m² | - |
| 1777904333 | 17.22° C | 49% | 1013.7 hPa | 0 mm | - | 129 W/m² | - |
| 1777904030 | 17.22° C | 49% | 1013.5 hPa | 0 mm | - | 114 W/m² | - |
| 1777903727 | 17.22° C | 51% | 1013.5 hPa | 0 mm | - | 106 W/m² | - |
| 1777903423 | 16.67° C | 52% | 1013.5 hPa | 0 mm | - | 95 W/m² | - |
| 1777903119 | 16.67° C | 51% | 1013.5 hPa | 0 mm | - | 84 W/m² | - |
| 1777902816 | 16.67° C | 51% | 1013.4 hPa | 0 mm | - | 73 W/m² | - |
| 1777902514 | 16.11° C | 52% | 1013.5 hPa | 0 mm | - | 63 W/m² | - |
| 1777902210 | 15.56° C | 53% | 1013.2 hPa | 0 mm | - | 54 W/m² | - |
| 1777901908 | 15.56° C | 53% | 1013.5 hPa | 0 mm | - | 46 W/m² | - |
| 1777901606 | 15.56° C | 53% | 1013.3 hPa | 0 mm | - | 39 W/m² | - |
* Rain latest hour (hover to see other rain measurements)
** Current wind speed in m/s (hover to see current wind gust speed)